Location: Hamilton Branch State Park
(33.7552°N, 82.2209°W)
Time: 23:07:44
(UTC-04:00)

Hubble Space Telescope - Pass Details

Date: 16 September 2019
Orbit: 536 x 540 km, 28.5° (Epoch: 16 October)

Event Time Altitude Azimuth Distance (km) Brightness Sun altitude
Exits shadow 06:01:12 26° 227° (SW) 1,081 1.8 -15.5°
Maximum altitude 06:02:56 39° 177° (S) 809 1.5 -15.2°
Drops below altitude 10° 06:06:48 10° 108° (ESE) 1,781 4.3 -14.4°
Sets 06:09:09 0° 101° (E) 2,673 5.6 -13.9°
